Akron, CO

12:44 PM MDT on September 26, 2017 (GMT -0600)
Akron-Washington County

Weather History for KAKO - December, 2012

Change the Weather History Date:

Sunday, December 9, 2012

  Actual Average Record
Temperature  
Mean Temperature 13 °F 28 °F  
Max Temperature 22 °F 40 °F 70 °F (2015)
Min Temperature 3 °F 17 °F -19 °F (1972)
Degree Days  
Heating Degree Days 52    
Month to date heating degree days 233  
Cooling Degree Days 0    
Month to date cooling degree days 0  
Moisture  
Dew Point 1 °F    
Average Humidity 55    
Maximum Humidity 69    
Minimum Humidity 41    
Precipitation  
Precipitation 0.00 in 0.02 in 0.22 in (1944)
Month to date precipitation T 0.16  
Year to date precipitation 7.85 16.50  
Sea Level Pressure  
Sea Level Pressure 30.24 in    
Wind  
Wind Speed 19 mph (NNW)    
Max Wind Speed 32 mph    
Max Gust Speed 43 mph    
Visibility 10 miles    
Events      
T = Trace of Precipitation, MM = Missing Value Source: NWS Daily Summary

Daily Weather History Graph

Daily Weather History Graph

Search for Another Location

Airport or City:

Trip Planner

Search our weather history database for the weather conditions in past years. The results will help you decide how hot, cold, wet, or windy it might be!

Date:

Astronomy

Dec. 09, 2012 Rise Set
Actual Time 7:03 AM MST 4:27 PM MST
Civil Twilight 6:33 AM MST 4:57 PM MST
Nautical Twilight 5:59 AM MST 5:31 PM MST
Astronomical Twilight 5:26 AM MST 6:04 PM MST
Moon 2:39 AM MST (12/9) 1:35 PM MST (12/9)
Length of Visible Light 10h 24m
Length of Day
9h 23m
Waning Crescent, 18% of the Moon is Illuminated
Dec 9
Waning Crescent
Dec 13
New
Dec 19
First Quarter
Dec 28
Full
Jan 4
Last Quarter

Hourly Weather History & Observations

Time (MST) Temp. Windchill Dew Point Humidity Pressure Visibility Wind Dir Wind Speed Gust Speed Precip Events Conditions
12:53 AM 19.9 °F 4.8 °F 9.0 °F 62% 29.97 in 10.0 mi NNW 18.4 mph - N/A   Overcast
1:53 AM 19.9 °F 4.8 °F 7.0 °F 57% 29.99 in 10.0 mi NNW 18.4 mph - N/A   Overcast
2:53 AM 18.0 °F 0.9 °F 5.0 °F 57% 30.04 in 10.0 mi NNW 21.9 mph - N/A   Overcast
3:53 AM 18.0 °F 1.7 °F 5.0 °F 57% 30.06 in 10.0 mi NNW 19.6 mph 25.3 mph N/A   Overcast
4:53 AM 15.1 °F -2.5 °F 5.0 °F 64% 30.10 in 10.0 mi North 20.7 mph 26.5 mph N/A   Overcast
5:53 AM 14.0 °F -4.3 °F 3.9 °F 64% 30.13 in 10.0 mi NNW 21.9 mph 28.8 mph N/A   Mostly Cloudy
6:53 AM 12.9 °F -8.0 °F 3.0 °F 65% 30.18 in 10.0 mi NNW 28.8 mph 42.6 mph N/A   Mostly Cloudy
7:53 AM 12.0 °F -8.1 °F 1.9 °F 64% 30.22 in 10.0 mi NNW 25.3 mph 34.5 mph N/A   Clear
8:53 AM 14.0 °F -5.5 °F 1.9 °F 59% 30.25 in 10.0 mi NNW 25.3 mph 35.7 mph N/A   Clear
9:53 AM 14.0 °F -5.8 °F 1.9 °F 59% 30.27 in 10.0 mi NNW 26.5 mph 35.7 mph N/A   Clear
10:53 AM 19.0 °F 0.3 °F 1.9 °F 47% 30.26 in 10.0 mi North 28.8 mph 34.5 mph N/A   Clear
11:53 AM 21.0 °F 5.0 °F 1.9 °F 44% 30.27 in 10.0 mi North 21.9 mph 29.9 mph N/A   Partly Cloudy
12:53 PM 21.0 °F 3.6 °F 1.0 °F 42% 30.27 in 10.0 mi North 26.5 mph 33.4 mph N/A   Partly Cloudy
1:53 PM 19.9 °F 4.8 °F -0.0 °F 42% 30.29 in 10.0 mi North 18.4 mph 31.1 mph N/A   Partly Cloudy
2:53 PM 19.9 °F 3.9 °F -0.0 °F 42% 30.30 in 10.0 mi North 20.7 mph - N/A   Clear
3:53 PM 18.0 °F 3.1 °F -0.9 °F 44% 30.33 in 10.0 mi North 16.1 mph - N/A   Clear
4:53 PM 10.0 °F -3.7 °F -2.9 °F 56% 30.38 in 10.0 mi NNW 10.4 mph - N/A   Clear
5:53 PM 5.0 °F -10.8 °F -5.1 °F 63% 30.40 in 10.0 mi NNW 11.5 mph - N/A   Clear
6:53 PM 5.0 °F -10.8 °F -4.0 °F 66% 30.41 in 10.0 mi NNW 11.5 mph - N/A   Clear
7:53 PM 6.1 °F -8.7 °F -2.9 °F 67% 30.39 in 10.0 mi NNW 10.4 mph - N/A   Clear
8:53 PM 6.1 °F -6.8 °F -2.9 °F 67% 30.36 in 10.0 mi West 8.1 mph - N/A   Clear
9:53 PM 6.1 °F -7.8 °F -2.9 °F 67% 30.33 in 10.0 mi WSW 9.2 mph - N/A   Clear
10:53 PM 8.1 °F -6.2 °F -2.9 °F 61% 30.27 in 10.0 mi WSW 10.4 mph - N/A   Clear
11:53 PM 7.0 °F -7.5 °F -2.9 °F 64% 30.24 in 10.0 mi SW 10.4 mph - N/A   Clear